Location: Unspecified
(0.0000°N, 0.0000°E)
Time: 15:39:43
(UTC+02:00)

NOSS 3-3 (A) - Visible Passes

Search period start: 28 September 2016 00:00
Search period end: 08 October 2016 00:00
Orbit: 927 x 1286 km, 63.4° (Epoch: 25 September)

Date Brightness Start Highest point End Pass type
(mag) Time Alt. Az. Time Alt. Az. Time Alt. Az.
28 Sep 5.7 21:02:42 10° NNE 21:07:20 22° NE 21:07:20 22° NE visible
28 Sep 6.1 22:51:43 10° NW 22:54:54 26° NW 22:54:54 26° NW visible
29 Sep 6.1 20:21:47 10° NE 20:23:47 11° ENE 20:25:46 10° E visible
29 Sep 4.7 22:06:42 10° NNW 22:13:22 66° NNW 22:13:22 66° NNW visible
30 Sep 4.5 21:22:16 10° N 21:30:03 56° ENE 21:32:21 43° ESE visible
30 Sep 6.5 23:15:28 10° WNW 23:20:00 19° WSW 23:20:00 19° WSW visible
01 Oct 5.2 20:38:29 10° N 20:45:21 32° ENE 20:52:13 10° SE visible
01 Oct 5.8 22:29:02 10° NW 22:36:09 35° WSW 22:39:57 24° SSW visible
02 Oct 4.9 21:43:37 10° NNW 21:51:28 62° WSW 21:59:19 10° SSE visible
03 Oct 4.5 20:58:50 10° NNW 21:06:49 78° ENE 21:14:47 10° SSE visible
03 Oct 7.0 22:54:29 10° W 22:57:42 13° WSW 23:00:56 10° SW visible
04 Oct 4.9 20:14:38 10° N 20:22:09 45° ENE 20:29:39 10° SE visible
04 Oct 6.4 22:06:43 10° WNW 22:12:56 25° WSW 22:19:08 10° SSW visible
05 Oct 5.6 21:20:46 10° NW 21:28:15 44° WSW 21:35:43 10° S visible
06 Oct 7.0 07:12:51 10° SE 07:15:13 12° ESE 07:17:36 10° E visible
06 Oct 4.8 20:35:36 10° NNW 20:43:35 77° WSW 20:51:33 10° SSE visible
07 Oct 7.1 21:44:59 10° WNW 21:49:46 17° WSW 21:54:31 10° SSW visible
